TimeEDT,TemperatureF,Dew PointF,Humidity,Sea Level PressureIn,VisibilityMPH,Wind Direction,Wind SpeedMPH,Gust SpeedMPH,PrecipitationIn,Events,Conditions,WindDirDegrees,DateUTC
12:30 AM,30.2,30.2,100,30.16,10.0,WSW,8.1,-,N/A,,Mostly Cloudy,250,2013-03-15 04:30:00
12:42 AM,30.2,30.2,100,30.15,10.0,WSW,9.2,-,N/A,,Overcast,240,2013-03-15 04:42:00
12:53 AM,32.0,32.0,100,30.14,10.0,SW,12.7,-,N/A,,Overcast,230,2013-03-15 04:53:00
12:55 AM,32.4,32.2,99,30.14,10.0,SW,12.7,-,N/A,,Overcast,230,2013-03-15 04:55:00
1:30 AM,30.2,30.2,100,30.14,10.0,SW,8.1,-,N/A,,Scattered Clouds,220,2013-03-15 05:30:00
1:55 AM,30.6,30.6,100,30.12,10.0,SSW,6.9,-,N/A,,Partly Cloudy,210,2013-03-15 05:55:00
2:55 AM,29.1,29.1,100,30.10,9.0,SSW,4.6,-,N/A,,Clear,200,2013-03-15 06:55:00
3:55 AM,28.9,28.9,100,30.09,10.0,Calm,Calm,-,N/A,,Mostly Cloudy,0,2013-03-15 07:55:00
4:30 AM,28.4,28.4,100,30.07,9.0,SSW,4.6,-,N/A,,Partly Cloudy,210,2013-03-15 08:30:00
4:43 AM,26.6,26.6,100,30.06,9.0,SSW,5.8,-,N/A,,Mostly Cloudy,210,2013-03-15 08:43:00
4:55 AM,28.0,28.0,100,30.06,10.0,SSW,6.9,-,N/A,,Mostly Cloudy,210,2013-03-15 08:55:00
5:55 AM,28.8,28.8,100,30.03,10.0,SSW,5.8,-,N/A,,Scattered Clouds,200,2013-03-15 09:55:00
6:55 AM,28.4,28.2,99,30.02,10.0,SSW,5.8,-,N/A,,Partly Cloudy,200,2013-03-15 10:55:00
7:10 AM,28.4,28.4,100,30.01,9.0,South,5.8,-,N/A,,Clear,190,2013-03-15 11:10:00
7:45 AM,28.4,28.4,100,30.00,9.0,South,6.9,-,N/A,,Clear,190,2013-03-15 11:45:00
7:55 AM,28.4,28.4,100,30.01,9.0,SSW,5.8,-,N/A,,Clear,200,2013-03-15 11:55:00
8:55 AM,30.7,30.4,99,30.00,6.0,SW,4.6,-,N/A,,Mostly Cloudy,220,2013-03-15 12:55:00
9:55 AM,33.4,32.0,94,29.99,6.0,SSW,6.9,-,N/A,,Overcast,210,2013-03-15 13:55:00
10:30 AM,35.6,32.0,87,29.94,7.0,SW,9.2,-,N/A,,Overcast,220,2013-03-15 14:30:00
10:55 AM,35.8,32.7,89,29.99,7.0,WSW,9.2,-,N/A,,Overcast,250,2013-03-15 14:55:00
11:55 AM,36.9,32.5,84,29.97,10.0,WSW,8.1,-,N/A,,Mostly Cloudy,240,2013-03-15 15:55:00
12:55 PM,39.4,33.4,79,29.96,10.0,WSW,8.1,-,N/A,,Scattered Clouds,240,2013-03-15 16:55:00
1:55 PM,43.5,35.2,73,29.93,10.0,West,6.9,-,N/A,,Partly Cloudy,260,2013-03-15 17:55:00
2:55 PM,47.1,36.7,67,29.92,10.0,West,9.2,-,N/A,,Partly Cloudy,260,2013-03-15 18:55:00
3:55 PM,47.8,37.8,68,29.89,10.0,WSW,9.2,-,N/A,,Mostly Cloudy,250,2013-03-15 19:55:00
4:23 PM,46.4,37.4,71,29.88,10.0,SW,6.9,-,N/A,,Light Drizzle,230,2013-03-15 20:23:00
4:55 PM,45.5,41.4,85,29.88,10.0,WSW,5.8,-,0.00,Rain,Light Rain,240,2013-03-15 20:55:00
5:55 PM,45.5,40.1,81,29.88,10.0,Calm,Calm,-,0.01,,Scattered Clouds,0,2013-03-15 21:55:00
6:55 PM,45.0,41.5,88,29.87,10.0,Calm,Calm,-,0.01,,Partly Cloudy,0,2013-03-15 22:55:00
7:55 PM,43.9,42.1,93,29.85,10.0,Calm,Calm,-,N/A,,Clear,0,2013-03-15 23:55:00
8:55 PM,43.0,42.8,99,29.84,10.0,East,5.8,-,N/A,,Overcast,100,2013-03-16 00:55:00
9:14 PM,42.8,42.8,100,29.83,10.0,ESE,8.1,-,N/A,Rain,Light Rain,120,2013-03-16 01:14:00
9:55 PM,43.2,42.6,98,29.81,10.0,SSE,9.2,-,0.00,,Light Drizzle,150,2013-03-16 01:55:00
10:02 PM,42.8,42.8,100,29.81,10.0,SE,9.2,-,N/A,,Overcast,140,2013-03-16 02:02:00
10:47 PM,42.8,41.0,93,29.81,10.0,NE,3.5,-,N/A,Rain,Light Rain,50,2013-03-16 02:47:00
10:55 PM,42.6,41.5,96,29.84,10.0,West,5.8,-,0.00,Rain,Light Rain,280,2013-03-16 02:55:00
11:02 PM,42.8,41.0,93,29.84,10.0,West,6.9,-,N/A,,Scattered Clouds,260,2013-03-16 03:02:00
11:55 PM,41.7,40.8,97,29.77,10.0,East,6.9,-,0.00,,Scattered Clouds,100,2013-03-16 03:55:00